Regional Weather Roundup
Issued by NWS Cleveland, OH

Home | Current Version | Previous Version | Text Only | Print | Product List | Glossary Off
Versions: 1 2 3 4 5 6 7 8 9 10 11 12 13 14 15 16 17 18 19 20 21 22 23 24 25 26 27 28 29 30 31 32 33 34 35 36 37 38 39 40 41 42 43 44 45 46 47 48 49 50

000
ASUS41 KCLE 022210
RWRCLE
OHIO REGIONAL WEATHER ROUNDUP
NATIONAL WEATHER SERVICE CLEVELAND, OH
600 PM EDT TUE SEP 02 2014

NOTE: "FAIR" INDICATES FEW OR NO CLOUDS BELOW 12,000 FEET WITH NO
SIGNIFICANT WEATHER AND/OR OBSTRUCTIONS TO VISIBILITY.

OHZ001>008-015>018-024>027-034-035-043-044-022300-
   NORTHWEST OHIO

CITY           SKY/WX    TMP DP  RH WIND       PRES   REMARKS
DEFIANCE       PTSUNNY   79  65  62 VRB3      29.90S
FINDLAY        PTSUNNY   76  66  71 SW8       29.91S
TOLEDO EXPRESS MOSUNNY   79  62  56 W6        29.89S
TOLEDO EXEC    PTSUNNY   78  68  71 W6        29.90R
LIMA           PTSUNNY   76  66  71 W12       29.93S
$$

OHZ009>014-019>023-028>033-038-089-022300-
   NORTHEAST OHIO

CITY           SKY/WX    TMP DP  RH WIND       PRES   REMARKS
CLE-HOPKINS    PTSUNNY   74  67  78 W8        29.92R
CLE-LAKEFRONT  PTSUNNY   73  68  84 W8        29.89R
CUY CO. ARPT   CLOUDY    73  70  88 W14       29.91R
LORAIN-ELYRIA  PTSUNNY   77  66  68 W12       29.92R
ASHTABULA      CLOUDY    71  65  81 W9        29.90R
AKRON-CANTON   PTSUNNY   76  63  64 W13       29.92R
WOOSTER        PTSUNNY   74  66  76 W10       29.93R
MANSFIELD      PTSUNNY   73  66  78 W7        29.95R
YOUNGSTOWN     PTSUNNY   74  65  73 W6        29.90S
$$

OHZ042-051>053-060>062-070>072-077>081-022300-
  SOUTHWEST OHIO

CITY           SKY/WX    TMP DP  RH WIND       PRES   REMARKS
CINC-COVINGTON PTSUNNY   75  72  90 CALM      29.95S
CINC-LUNKEN    PTSUNNY   74  72  93 SE3       29.94S
HAMILTON       PTSUNNY   79  69  71 VRB6      29.94S
DAYTON         PTSUNNY   78  66  66 W9        29.95S
WRIGHT-PAT AFB MOSUNNY   76  71  84 SW6       29.94S
DAYTON GENERAL MOSUNNY   77  67  71 SW7       29.94S
WILMINGTON     PTSUNNY   77  67  71 W8        29.94F
$$

OHZ036-037-039>041-045>050-054>059-063>069-073>076-082>088-022300-
  CENTRAL AND SOUTHEAST OHIO

CITY           SKY/WX    TMP DP  RH WIND       PRES   REMARKS
COLUMBUS       PTSUNNY   79  65  62 W9        29.93S
OSU AIRPORT    PTSUNNY   76  68  76 W10       29.93S
BOLTON FIELD   PTSUNNY   75  70  83 W5        29.94F
RICKENBACK AFB PTSUNNY   79  64  59 W7        29.92F
NEWARK         LGT RAIN  75  66  73 W7        29.93S
MARION         PTSUNNY   75  65  70 NW8       29.94R
LANCASTER      CLOUDY    77  68  73 W5        29.94S
ZANESVILLE     PTSUNNY   77  66  68 W7        29.93S
NEW PHILLY     PTSUNNY   77  67  71 W13G18    29.92R
$$


USA.gov is the U.S. government's official web portal to all federal, state and local government web resources and services.